Back to catalog

FENGYUN 1C DEB

LostPO
NORAD 32426·DEBRIS·🇨🇳 China

Launched May 10, 1999 from Taiyuan Satellite Launch Center

Loading…

Next Passes (next 24 hours)

TLE

StaleSource: Space-Track

Epoch: Oct 11, 2011, 11:21 UTC

1 32426U 99025DAN 11284.47345556  .00002401  00000-0  24138-2 0  9994
2 32426  98.2688  30.8916 0302044 225.3839 132.3573 13.60063636207829

Track FENGYUN 1C DEB in real time with AllMySat

Download on the App Store